User: anonymous   Login
Location: Unspecified
(0.0000°N, 0.0000°E)
Time: 07:15:43
(UTC+01:00)
Language:

ATLAS 2AS CENTAUR R/B - Orbit

View from above orbital plane
View from above orbital plane
View from above satellite
View from above satellite

Ground track
Ground track

The orbit data is extracted from the following two-line orbital elements,

1 28096U 03054B   18018.77782038 0.00000000  00000-0  00000-0 0    00
2 28096  63.6655 232.8615 0263000 256.5864 103.4136 13.40833842    06
Epoch (UTC): 18 January 2018 18:40:03
Eccentricity: 0.0263000
inclination: 63.6655°
perigee height: 909 km
apogee height: 1303 km
right ascension of ascending node: 232.8615°
argument of perigee: 256.5864°
revolutions per day: 13.40833842
mean anomaly at epoch: 103.4136°
orbit number at epoch: 0

The dashed part of the orbit path shows where the satellite is in the earth's shadow,  

DLR